STARLINK-11508 [DTC] (62515 NORAD) Tracking and Keplerian Element Data

This shows tracking and keplerian element data for the satellite.

Feedback or suggestion? Click here.




ElementValue
Catalog62515
NameSTARLINK-11508 [DTC]
Epoch Orbit5467
Epoch Day353.97638619
Epoch Year2025
RAAN191.0417
Inclination43.0005
Eccentricity0.0002133
Argument of Perigee260.1973
Mean Anonmoly99.8654
Mean Motion15.7080472
Decay Rate0.00139783
L11 62515U 25004E 25353.97638619 .00139783 00000+0 10762-2 0 9995
L22 62515 43.0005 191.0417 0002133 260.1973 99.8654 15.70804720 54670



Live tracking and technical data element details for STARLINK-11508 [DTC] (NORAD 62515). STARLINK-11508 [DTC] can be tracked NOW for your location showing map with azimuth and elevation plus other details from your city location.







IsCatalogInMostPopularTable: catalog: 62515, numindb: 78
Update: records affected: 1



GetName: 62515 STARLINK-11508 [DTC]

Hit Count: updated at: Sat, 07 Feb 2026 09:03:08 GMT